Location: Alafon
(8.4500°N, 4.2333°E)
Time: 02:17:50
(UTC+00:00)

deb Explorer IX - Pass Details

Date: 31 July 2021
Orbit: 545 x 1092 km, 38.8° (Epoch: 16 September)

Event Time Altitude Azimuth Distance (km) Brightness Sun altitude
Rises 21:24:19 0° 293° (WNW) 3,847 ? -45.4°
Reaches altitude 10° 21:27:19 10° 284° (WNW) 2,919 ? -46.0°
Enters shadow 21:29:20 18° 273° (W) 2,364 ? -46.4°
Maximum altitude 21:33:40 33° 223° (SW) 1,726 - -47.3°
Drops below altitude 10° 21:39:54 10° 161° (SSE) 2,858 - -48.5°
Sets 21:42:50 0° 151° (SSE) 3,756 - -49.0°
